Location: Berbisdorf
(50.7638°N, 12.9442°E)
Time: 02:22:56
(UTC+00:00)

BREEZE-M DEB (TANK) - Pass Details

Date: 03 October 2020
Orbit: 333 x 12040 km, 49.7° (Epoch: 19 October)

Event Time Altitude Azimuth Distance (km) Brightness Sun altitude
Rises 01:52:14 0° 175° (S) 14,807 9.1 -30.7°
Reaches altitude 10° 02:06:48 10° 170° (S) 15,024 9.1 -28.8°
Maximum altitude 03:28:58 47° 118° (ESE) 10,752 8.9 -17.0°
Drops below altitude 10° 04:05:04 10° 61° (ENE) 7,960 9.2 -11.4°
Sets 04:09:20 0° 56° (NE) 8,070 9.3 -10.8°
